BDSAT-2 (55098 NORAD) Tracking and Keplerian Element Data

This shows tracking and keplerian element data for the satellite.

Feedback or suggestion? Click here.




ElementValue
Catalog55098
NameBDSAT-2
Epoch Orbit1885
Epoch Day127.08096603
Epoch Year2023
RAAN187.5549
Inclination97.485
Eccentricity0.0017483
Argument of Perigee142.9071
Mean Anonmoly217.3374
Mean Motion15.17234549
Decay Rate0.00016137
L11 55098U 23001CT 23127.08096603 .00016137 00000+0 81032-3 0 9994
L22 55098 97.4850 187.5549 0017483 142.9071 217.3374 15.17234549 18858



Live tracking and technical data element details for BDSAT-2 (NORAD 55098). BDSAT-2 can be tracked NOW for your location showing map with azimuth and elevation plus other details from your city location.







IsCatalogInMostPopularTable: catalog: 55098, numindb: -1

Insert: records affected: 1


GetName: 55098 BDSAT-2

Hit Count: inserted at: Mon, 05 Jun 2023 21:21:46 GMT